Flag for Colombia Weather past 2 weeks in Barranquilla, Colombia

Now
91 °F

Scattered clouds.


Feels Like: 108 °F
Forecast: 80 / 90 °F
Wind: 9 mph from Northeast

Location: Barranquilla / Ernestocortissoz

Current Time: Jul 30, 2014 at 2:29:31 PM

Latest Report: Jul 30, 2014 at 2:00 PM


Visibility: N/A

Pressure: 29.82 "Hg

Humidity: 67%

Dew point: 79 °F

Location of BarranquillaLocation

Historic Weather in Barranquilla — Graph

°F

Barranquilla temperature yesterday

Maximum temperature yesterday: 97 °F (at 11:00 AM)
Minimum temperature yesterday: 81 °F (at 2:00 AM)
Average temperature yesterday: 85 °F

Past Weeks' High & Low Weather Summary

 TemperatureHumidityPressure
High99 °F (Jul 20, 12:00 PM)100% (Jul 16, 5:00 AM)29.95 "Hg (Jul 16, 5:00 AM)
Low77 °F (Jul 16, 6:00 AM)18% (Jul 24, 11:00 AM)29.70 "Hg (Jul 24, 2:00 PM)
Average85 °F79%29.82 "Hg
* Reported Jul 15 1:00 PM — Jul 30 1:00 PM, Barranquilla, Weather by CustomWeather, © 2014

Note: Actual official high and low records may vary slightly from our data, if they occured in-between our weather recording intervals... More about our weather records

Advertising

Barranquilla weather history for previous 24 hours

 ConditionsComfort  
Time TempWeatherWind HumidityBarometerVisibility
1:00 PM
Jul 30
93 °FScattered clouds.12 mph63%29.85 "HgN/A
12:00 PM95 °FScattered clouds.6 mph56%29.87 "HgN/A
11:00 AM93 °FScattered clouds.3 mph59%29.88 "HgN/A
10:00 AM90 °FScattered clouds.6 mph67%29.91 "HgN/A
9:00 AM86 °FScattered clouds.13 mph79%29.92 "Hg5 mi
8:00 AM82 °FScattered clouds.5 mph89%29.90 "Hg3 mi
7:00 AM81 °FScattered clouds.5 mph94%29.88 "Hg2 mi
6:00 AM79 °FScattered clouds.3 mph100%29.86 "Hg1 mi
5:00 AM81 °FFog.No wind94%29.85 "Hg3 mi
4:00 AM81 °FPassing clouds.6 mph89%29.84 "HgN/A
2:00 AM81 °FPassing clouds.12 mph89%29.87 "HgN/A
1:00 AM81 °FPassing clouds.12 mph89%29.87 "HgN/A
12:00 AM81 °FPassing clouds.12 mph89%29.88 "HgN/A
11:00 PM
Jul 29
81 °FPassing clouds.12 mph89%29.89 "HgN/A
10:00 PM82 °FPassing clouds.13 mph84%29.90 "HgN/A
9:00 PM81 °FPassing clouds.No wind89%29.89 "HgN/A
8:00 PM81 °FPartly cloudy.6 mph84%29.88 "HgN/A
7:00 PM82 °FPassing clouds.6 mph89%29.84 "HgN/A
6:00 PM84 °FScattered clouds.10 mph84%29.82 "HgN/A
5:00 PM86 °FScattered clouds.13 mph79%29.81 "HgN/A
4:00 PM90 °FScattered clouds.17 mph67%29.81 "HgN/A
3:00 PM86 °FScattered clouds.10 mph75%29.80 "HgN/A
2:00 PM90 °FScattered clouds.7 mph67%29.82 "HgN/A
Weather by CustomWeather, © 2014

See weather overviewHow to use our weather pages